Location: Bittelbronn
(48.4454°N, 8.5870°E)
Time: 09:49:00
(UTC+00:00)

Meteor 2-5 Rocket - Pass Details

Date: 10 August 2024
Orbit: 833 x 910 km, 81.2° (Epoch: 16 September)

Event Time Altitude Azimuth Distance (km) Brightness Sun altitude
Rises 02:21:51 0° 348° (NNW) 3,453 7.4 -15.7°
Reaches altitude 10° 02:24:17 10° 350° (N) 2,523 6.7 -15.4°
Maximum altitude 02:30:02 80° 78° (ENE) 899 3.9 -14.8°
Drops below altitude 10° 02:35:53 10° 166° (SSE) 2,556 5.9 -14.1°
Sets 02:38:21 0° 167° (SSE) 3,501 6.6 -13.8°
